Regional Weather Roundup
Issued by NWS Jackson, KY

Home | Current Version | Previous Version | Graphics & Text | Print | Product List | Glossary On
Versions: 1 2 3 4 5 6 7 8 9 10 11 12 13 14 15 16 17 18 19 20 21 22 23 24 25 26 27 28 29 30 31 32 33 34 35 36 37 38 39 40 41 42 43 44 45 46 47 48 49 50
000
ASUS43 KJKL 031710
RWRJKL

EAST KENTUCKY HOURLY WEATHER ROUNDUP
NATIONAL WEATHER SERVICE JACKSON KY
100 PM EDT WED JUN 03 2015

NOTE: "FAIR" INDICATES FEW OR NO CLOUDS BELOW 12,000 FEET WITH
NO SIGNIFICANT WEATHER AND/OR OBSTRUCTIONS TO VISIBILITY.

* THESE REPORTS ARE NOT UNDER NWS QUALITY CONTROL AND MAY NOT
  REPORT WEATHER SUCH AS PRECIPITATION AND FOG.

KYZ079-080-083-085-087-088-110-112-115-119-120-031800
...EASTERN KENTUCKY...

CITY           SKY/WX    TMP DP  RH WIND       PRES   REMARKS
JACKSON        CLOUDY    63  58  83 CALM      30.08S
LONDON         CLOUDY    65  55  70 CALM      30.07S
SOMERSET*      CLOUDY    64  55  72 CALM      30.07F
MONTICELLO*    CLOUDY    68  62  80 E5        30.08F
MIDDLESBORO*   PTSUNNY   74  61  65 CALM      30.05S
HARLAN APT*    MOSUNNY   73  55  53 CALM      30.04F
HAZARD APT*    CLOUDY    66  61  82 CALM      30.07F
BLACK MTN*       N/A     66  57  72 CALM        N/A
PIKEVILLE APT* CLOUDY    64  61  88 CALM      30.08F
BIG SANDY*     CLOUDY    66  60  81 CALM      30.08S
MOREHEAD APT*  CLOUDY    66  59  77 VRB5      30.09S
$$

KYZ035-036-041-042-044-050-067-078-099-031800
...CENTRAL KENTUCKY...

CITY           SKY/WX    TMP DP  RH WIND       PRES   REMARKS
MT STERLING*   CLOUDY    63  57  82 SE5       30.08F
FLEMING/MASON* CLOUDY    66  59  77 E3        30.08F
DANVILLE*      CLOUDY    63  55  77 CALM      30.08S
RICHMOND*      CLOUDY    63  55  77 CALM      30.07F
LEXINGTON      CLOUDY    63  56  78 E7        30.07F
FRANKFORT      CLOUDY    64  55  72 E8        30.06F
$$

KYZ091>093-OHZ055-061-077-WVZ005-015-034-035-042-031800
...SOUTHERN OHIO/WEST VIRGINIA...

CITY           SKY/WX    TMP DP  RH WIND       PRES   REMARKS
COVINGTON      CLOUDY    67  56  67 E5        30.07F
COLUMBUS       CLOUDY    68  58  70 E6        30.08S
DAYTON         CLOUDY    68  58  70 CALM      30.09F
WILMINGTON     CLOUDY    66  56  70 E8        30.08F HAZE
HUNTINGTON     CLOUDY    67  59  75 VRB3      30.07F
CHARLESTON     PTSUNNY   71  60  68 CALM      30.07F
PINEVILLE*     CLOUDY    69  62  78 MISG      30.14S
BECKLEY        CLOUDY    63  55  75 SE15      30.14S
BLUEFIELD      CLOUDY    62  55  77 E8        30.14F
$$

VAZ002-007-008-TNZ017-027-036-066-071-031800
...SOUTHWEST VIRGINIA/EAST TENNESSEE...

CITY           SKY/WX    TMP DP  RH WIND       PRES   REMARKS
WISE*          MOSUNNY   72  54  53 S5        30.10S
JONESVILLE*    PTSUNNY   73  59  60 NE3       30.06F
ABINGDON*      CLOUDY    75  61  60 E8        30.07S
BRISTOL        MOSUNNY   78  58  49 NE6       30.04F
KNOXVILLE      MOSUNNY   75  60  59 CALM      30.02S
OAK RIDGE      PTSUNNY   77  60  55 VRB3      30.03F
CROSSVILLE     PTSUNNY   73  59  61 E7        30.05F
NASHVILLE      CLOUDY    70  59  68 N5        30.04S
$$

...KEY TO REMARKS...
VSB - VISIBILITY IN MILES
WCI - WIND CHILL INDEX
HX  - HEAT INDEX

$$



USA.gov is the U.S. government's official web portal to all federal, state and local government web resources and services.